Beach, ND

2:37 PM MDT on July 25, 2017 (GMT -0600)
Beach

Weather History for K20U - April, 2013

Change the Weather History Date:

Sunday, April 28, 2013

  Actual Average (KGDV) Record (KGDV)
Temperature  
Mean Temperature 48 °F -  
Max Temperature 60 °F 59 °F 84 °F (2001)
Min Temperature 37 °F 35 °F 24 °F (2008)
Degree Days  
Heating Degree Days 16    
Moisture  
Dew Point 28 °F    
Average Humidity 40    
Maximum Humidity 70    
Minimum Humidity 23    
Precipitation  
Precipitation 0.00 in - - ()
Sea Level Pressure  
Sea Level Pressure 29.85 in    
Wind  
Wind Speed 12 mph (NNW)    
Max Wind Speed 21 mph    
Max Gust Speed 28 mph    
Visibility 10 miles    
Events      
Averages and records for this station are not official NWS values.
T = Trace of Precipitation, MM = Missing Value Source: NWS Daily Summary

Daily Weather History Graph

Daily Weather History Graph

Search for Another Location

Airport or City:

Trip Planner

Search our weather history database for the weather conditions in past years. The results will help you decide how hot, cold, wet, or windy it might be!

Date:

Astronomy

Apr. 28, 2013 Rise Set
Actual Time 5:44 AM MDT 8:02 PM MDT
Civil Twilight 5:11 AM MDT 8:36 PM MDT
Nautical Twilight 4:29 AM MDT 9:18 PM MDT
Astronomical Twilight 3:42 AM MDT 10:05 PM MDT
Moon 11:42 PM MDT (4/28) 7:56 AM MDT (4/28)
Length of Visible Light 15h 24m
Length of Day
14h 17m
Waning Gibbous, 88% of the Moon is Illuminated
Apr 28
Waning Gibbous
May 2
Last Quarter
May 9
New
May 17
First Quarter
May 24
Full

Hourly Weather History & Observations

Time (MDT) Temp. Windchill Dew Point Humidity Pressure Visibility Wind Dir Wind Speed Gust Speed Precip Events Conditions
12:15 AM 57.2 °F - 32.0 °F 38% 29.74 in 10.0 mi WSW 10.4 mph - N/A   Overcast
12:35 AM 57.2 °F - 32.0 °F 38% 29.75 in 10.0 mi WNW 13.8 mph - N/A   Overcast
12:55 AM 57.2 °F - 32.0 °F 38% 29.76 in 10.0 mi WNW 11.5 mph - N/A   Overcast
1:15 AM 57.2 °F - 32.0 °F 38% 29.76 in 10.0 mi WNW 9.2 mph - N/A   Overcast
1:35 AM 57.2 °F - 32.0 °F 38% 29.77 in 10.0 mi WNW 10.4 mph - N/A   Overcast
1:55 AM 57.2 °F - 32.0 °F 38% 29.77 in 10.0 mi NW 12.7 mph 17.3 mph N/A   Overcast
2:15 AM 55.4 °F - 32.0 °F 41% 29.78 in 10.0 mi NW 11.5 mph - N/A   Overcast
2:35 AM 55.4 °F - 30.2 °F 38% 29.78 in 10.0 mi NW 16.1 mph 20.7 mph N/A   Overcast
2:55 AM 55.4 °F - 32.0 °F 41% 29.78 in 10.0 mi WNW 13.8 mph - N/A   Overcast
3:15 AM 55.4 °F - 32.0 °F 41% 29.78 in 10.0 mi WNW 13.8 mph - N/A   Overcast
3:35 AM 53.6 °F - 32.0 °F 44% 29.79 in 10.0 mi WNW 17.3 mph - N/A   Overcast
3:55 AM 53.6 °F - 32.0 °F 44% 29.80 in 10.0 mi WNW 13.8 mph - N/A   Overcast
4:15 AM 51.8 °F - 32.0 °F 47% 29.80 in 10.0 mi WNW 13.8 mph - N/A   Overcast
4:35 AM 51.8 °F - 32.0 °F 47% 29.81 in 10.0 mi WNW 13.8 mph - N/A   Partly Cloudy
4:55 AM 51.8 °F - 32.0 °F 47% 29.81 in 10.0 mi WNW 13.8 mph - N/A   Mostly Cloudy
5:15 AM 51.8 °F - 32.0 °F 47% 29.81 in 10.0 mi West 15.0 mph - N/A   Mostly Cloudy
5:35 AM 51.8 °F - 32.0 °F 47% 29.82 in 10.0 mi WNW 16.1 mph 21.9 mph N/A   Partly Cloudy
5:55 AM 51.8 °F - 32.0 °F 47% 29.82 in 10.0 mi WNW 16.1 mph - N/A   Clear
6:15 AM 50.0 °F - 32.0 °F 50% 29.82 in 10.0 mi WNW 16.1 mph 20.7 mph N/A   Clear
6:35 AM 51.8 °F - 32.0 °F 47% 29.83 in 10.0 mi WNW 17.3 mph 21.9 mph N/A   Clear
6:55 AM 51.8 °F - 32.0 °F 47% 29.84 in 10.0 mi WNW 16.1 mph 20.7 mph N/A   Clear
7:15 AM 51.8 °F - 32.0 °F 47% 29.84 in 10.0 mi WNW 16.1 mph 20.7 mph N/A   Clear
7:35 AM 53.6 °F - 33.8 °F 47% 29.85 in 10.0 mi WNW 16.1 mph - N/A   Clear
7:55 AM 53.6 °F - 32.0 °F 44% 29.86 in 10.0 mi NW 19.6 mph 24.2 mph N/A   Clear
8:15 AM 55.4 °F - 33.8 °F 44% 29.86 in 10.0 mi NW 20.7 mph 26.5 mph N/A   Clear
8:35 AM 55.4 °F - 32.0 °F 41% 29.86 in 10.0 mi NNW 16.1 mph 24.2 mph N/A   Clear
8:55 AM 55.4 °F - 32.0 °F 41% 29.87 in 10.0 mi NW 18.4 mph - N/A   Clear
9:15 AM 55.4 °F - 33.8 °F 44% 29.88 in 10.0 mi NNW 20.7 mph 26.5 mph N/A   Clear
9:35 AM 55.4 °F - 35.6 °F 47% 29.89 in 10.0 mi NNW 17.3 mph 24.2 mph N/A   Clear
9:55 AM 53.6 °F - 33.8 °F 47% 29.89 in 10.0 mi North 15.0 mph 21.9 mph N/A   Clear
10:15 AM 55.4 °F - 32.0 °F 41% 29.89 in 10.0 mi North 13.8 mph 23.0 mph N/A   Clear
10:35 AM 55.4 °F - 32.0 °F 41% 29.89 in 10.0 mi NNW 18.4 mph 27.6 mph N/A   Clear
10:55 AM 57.2 °F - 32.0 °F 38% 29.90 in 10.0 mi North 12.7 mph 19.6 mph N/A   Clear
11:15 AM 57.2 °F - 32.0 °F 38% 29.91 in 10.0 mi North 16.1 mph 20.7 mph N/A   Clear
11:35 AM 57.2 °F - 26.6 °F 31% 29.91 in 10.0 mi North 17.3 mph 21.9 mph N/A   Clear
11:55 AM 57.2 °F - 24.8 °F 29% 29.92 in 10.0 mi North 10.4 mph 23.0 mph N/A   Clear
12:15 PM 57.2 °F - 28.4 °F 33% 29.92 in 10.0 mi North 15.0 mph 20.7 mph N/A   Clear
12:55 PM 57.2 °F - 24.8 °F 29% 29.92 in 10.0 mi North 11.5 mph 17.3 mph N/A   Clear
1:15 PM 57.2 °F - 24.8 °F 29% 29.92 in 10.0 mi NNW 10.4 mph 18.4 mph N/A   Clear
1:35 PM 57.2 °F - 23.0 °F 27% 29.92 in 10.0 mi NNE 8.1 mph - N/A   Clear
1:55 PM 59.0 °F - 24.8 °F 27% 29.92 in 10.0 mi North 8.1 mph 17.3 mph N/A   Clear
2:15 PM 59.0 °F - 23.0 °F 25% 29.92 in 10.0 mi North 9.2 mph - N/A   Clear
2:35 PM 59.0 °F - 23.0 °F 25% 29.92 in 10.0 mi North 10.4 mph 17.3 mph N/A   Clear
2:55 PM 59.0 °F - 23.0 °F 25% 29.92 in 10.0 mi NNE 8.1 mph - N/A   Clear
3:15 PM 59.0 °F - 24.8 °F 27% 29.91 in 10.0 mi NNW 8.1 mph 18.4 mph N/A   Clear
3:35 PM 59.0 °F - 23.0 °F 25% 29.91 in 10.0 mi NE 3.5 mph - N/A   Clear
3:55 PM 59.0 °F - 23.0 °F 25% 29.90 in 10.0 mi North 4.6 mph - N/A   Clear
4:15 PM 60.8 °F - 23.0 °F 23% 29.90 in 10.0 mi NNE 6.9 mph 17.3 mph N/A   Clear
4:35 PM 60.8 °F - 23.0 °F 23% 29.90 in 10.0 mi NNW 4.6 mph - N/A   Clear
4:55 PM 60.8 °F - 23.0 °F 23% 29.90 in 10.0 mi North 4.6 mph - N/A   Clear
5:15 PM 60.8 °F - 23.0 °F 23% 29.90 in 10.0 mi NNW 5.8 mph - N/A   Clear
5:35 PM 59.0 °F - 23.0 °F 25% 29.89 in 10.0 mi NNW 4.6 mph - N/A   Clear
5:55 PM 60.8 °F - 23.0 °F 23% 29.89 in 10.0 mi NW 3.5 mph - N/A   Partly Cloudy
6:35 PM 59.0 °F - 23.0 °F 25% 29.88 in 10.0 mi East 3.5 mph - N/A   Clear
6:55 PM 59.0 °F - 23.0 °F 25% 29.87 in 10.0 mi East 3.5 mph - N/A   Clear
7:15 PM 59.0 °F - 23.0 °F 25% 29.87 in 10.0 mi SSE 3.5 mph - N/A   Partly Cloudy
7:35 PM 57.2 °F - 23.0 °F 27% 29.87 in 10.0 mi East 3.5 mph - N/A   Partly Cloudy
7:55 PM 53.6 °F - 23.0 °F 30% 29.87 in 10.0 mi ESE 5.8 mph - N/A   Partly Cloudy
8:15 PM 50.0 °F - 24.8 °F 37% 29.87 in 10.0 mi East 4.6 mph - N/A   Partly Cloudy
8:35 PM 48.2 °F - 26.6 °F 43% 29.87 in 10.0 mi ESE 5.8 mph - N/A   Clear
8:55 PM 44.6 °F 41.4 °F 24.8 °F 46% 29.87 in 10.0 mi SE 5.8 mph - N/A   Clear
9:15 PM 41.0 °F 39.0 °F 26.6 °F 57% 29.87 in 10.0 mi SSE 3.5 mph - N/A   Clear
9:35 PM 41.0 °F 39.0 °F 26.6 °F 57% 29.86 in 10.0 mi SSE 3.5 mph - N/A   Clear
9:55 PM 37.4 °F 32.8 °F 26.6 °F 65% 29.85 in 10.0 mi SE 5.8 mph - N/A   Clear
10:15 PM 37.4 °F 34.9 °F 26.6 °F 65% 29.84 in 10.0 mi SSE 3.5 mph - N/A   Clear
10:35 PM 39.2 °F 35.9 °F 28.4 °F 65% 29.84 in 10.0 mi SSE 4.6 mph - N/A   Clear
10:55 PM 37.4 °F 32.8 °F 28.4 °F 70% 29.83 in 10.0 mi South 5.8 mph - N/A   Clear
11:15 PM 37.4 °F 30.3 °F 26.6 °F 65% 29.82 in 10.0 mi SE 10.4 mph - N/A   Clear
11:35 PM 39.2 °F 32.0 °F 28.4 °F 65% 29.81 in 10.0 mi SSE 11.5 mph - N/A   Clear
11:55 PM 41.0 °F 35.8 °F 28.4 °F 61% 29.81 in 10.0 mi SSE 8.1 mph - N/A   Clear